Tracking 31027 objects as of 19-Jul-2025
HD Live streaming from Space Station
objects crossing your sky now

FENGYUN 1C DEB

Track FENGYUN 1C DEB now!
10-day predictions


NORAD ID: 32350
Int'l Code: 1999-025CYT
Perigee: 535.6 km
Apogee: 924.1 km
Inclination: 98.2 °
Period: 99.2 minutes
Semi major axis: 7100 km
RCS: 0.0139 m2 (small)
Launch date: May 10, 1999
Source: People's Republic of China (PRC)
Launch site: Taiyaun Space Center, China (TSC)

Note: This is SATELLITE DEBRIS
Your satellite tracking list
NUSAT-20 (GRACE)
Track 1 satellite(s)




NASA's NSSDC Master Catalog

Two Line Element Set (TLE):
1 32350U 99025CYT 25199.37439199  .00003606  00000-0  56987-3 0  9992
2 32350  98.2482 246.7809 0273580  32.3529 329.4117 14.50908392953895
Source of the keplerian elements: AFSPC